Theta_e
350 349 351 352 350 353 351 353 357 357 356 339 336 345 349 354 356 360 360 360 360 357 352 351 349 348 352 351 352 354 354 357 355 351 350 354 354 353 355 352 354 354 354 353 353 354 354 356 356 356 356 355 356 356 353 351 351 350 349 350 349 344 341 344 346 346 346 347 347 347 346 347 347 348 349 350 350 351 352 352 351 351 349 348 347 347 348 350 350 350 350 351 351 351 351 350 350
351 352 352 353 352 354 355 357 355 345 348 339 338 347 349 357 357 358 359 359 359 354 351 349 348 349 350 349 349 351 352 352 352 352 352 354 353 354 355 354 354 354 354 353 353 354 354 354 354 355 355 355 356 355 353 351 352 351 351 350 346 341 341 344 344 346 346 347 346 346 345 347 347 348 349 350 350 350 350 350 350 350 348 349 349 348 347 348 348 348 349 350 350 351 351 350 350
353 354 353 354 355 355 357 359 350 338 345 339 336 350 353 356 356 356 357 357 356 351 350 348 349 350 348 349 351 352 351 348 348 348 350 352 353 353 355 355 355 354 354 353 353 354 354 352 352 355 354 354 355 354 353 352 352 350 349 345 341 340 342 343 345 347 347 347 345 344 345 346 346 348 348 349 350 350 350 350 350 350 350 350 350 350 349 349 348 347 348 349 349 350 351 350 349
354 354 354 356 357 357 358 358 351 342 342 337 334 349 354 354 355 355 355 354 353 351 350 349 350 351 351 353 352 352 351 348 348 349 350 352 353 353 354 355 355 353 353 354 354 354 354 352 352 353 352 352 353 352 351 351 349 347 345 341 339 341 342 344 348 348 347 346 344 343 344 344 346 347 347 348 349 349 349 349 349 350 350 350 350 351 351 351 350 349 348 348 349 350 351 350 350
355 355 355 357 359 359 358 356 352 343 339 340 337 347 354 353 355 354 355 354 352 351 350 350 351 351 352 353 352 352 350 348 350 351 351 352 352 353 353 354 354 353 353 353 353 354 353 351 352 352 351 352 352 351 350 349 348 345 341 340 339 340 342 345 347 348 346 345 344 344 344 343 344 344 345 345 345 345 345 346 347 349 350 350 350 350 351 351 351 350 350 350 351 352 351 350 350
355 356 355 357 359 356 357 348 341 337 341 349 343 347 354 351 355 354 355 354 352 351 349 351 352 351 352 352 350 350 349 349 350 351 352 353 352 352 353 353 353 353 353 352 352 354 352 350 351 352 352 352 351 350 349 348 346 342 340 340 340 341 343 343 344 346 346 344 345 346 343 341 342 342 342 342 342 344 344 345 346 347 347 347 349 350 351 351 351 350 350 351 351 352 352 351 351
355 356 356 358 359 356 356 341 334 338 344 354 349 350 353 351 355 353 355 355 353 352 350 352 349 352 354 352 351 350 351 351 350 350 352 352 351 352 353 352 352 352 352 352 351 353 352 350 352 352 352 352 350 349 347 344 342 340 340 341 340 342 344 342 343 345 344 345 346 346 342 340 342 341 341 342 344 345 346 347 347 347 346 347 350 351 351 351 350 349 349 351 351 351 351 352 352
355 357 356 359 360 357 352 338 339 345 344 351 350 351 352 352 354 353 356 354 355 354 351 352 348 353 355 352 354 352 352 351 351 351 352 351 351 352 352 352 352 352 351 350 351 352 350 350 352 351 352 350 348 348 343 339 341 341 339 339 340 343 344 343 344 344 343 345 346 343 341 341 341 340 342 345 346 346 347 348 349 348 349 349 350 352 352 351 351 350 349 351 351 350 350 350 350
355 358 357 357 357 352 344 338 341 346 349 351 349 351 352 351 352 354 354 352 354 353 353 352 349 355 355 354 355 352 352 351 352 352 352 351 351 352 352 352 352 352 351 351 352 352 351 350 351 351 351 350 348 347 343 340 341 340 339 339 340 342 343 343 344 343 343 344 343 341 340 340 339 339 342 344 345 346 348 349 349 349 350 350 349 351 351 350 349 347 347 349 351 349 348 348 349
355 356 359 358 354 341 331 333 339 344 349 349 349 351 351 351 351 353 353 352 353 352 353 351 350 354 355 356 354 352 351 351 352 352 352 351 351 351 352 352 352 353 353 354 353 353 352 350 350 350 349 348 347 346 343 342 340 340 340 341 342 342 342 342 343 343 343 343 341 339 340 339 338 339 340 342 345 348 350 350 350 350 350 350 350 348 348 350 347 344 344 346 348 348 348 348 348
356 354 357 354 344 332 324 330 338 344 348 347 350 349 350 350 351 352 352 352 351 352 352 351 353 353 354 355 354 353 351 351 352 352 351 351 350 350 352 352 353 353 353 354 352 353 353 350 348 347 347 347 346 345 345 344 340 340 342 343 343 342 341 341 342 343 343 342 339 338 341 340 338 337 337 340 346 349 351 351 351 350 350 350 349 346 346 350 349 345 344 346 347 347 349 349 348
358 356 358 351 340 335 333 334 337 345 348 347 349 349 350 350 351 352 352 351 351 353 351 351 353 352 355 356 353 352 351 351 351 351 351 351 350 350 352 353 353 353 353 354 353 353 354 352 349 346 345 345 347 348 347 344 340 341 342 344 344 342 341 341 342 342 342 340 339 338 340 341 338 337 336 338 345 350 352 352 352 351 349 349 349 346 344 350 350 344 343 347 348 349 351 350 349
356 358 356 351 346 345 343 338 341 345 344 347 349 349 350 349 352 351 351 352 350 352 351 351 351 352 356 355 353 351 349 351 351 351 350 350 350 350 351 353 354 353 354 353 354 354 354 353 352 349 346 345 348 348 345 342 342 343 344 344 344 343 341 341 341 341 340 339 340 337 339 341 337 337 335 336 343 350 353 353 353 352 349 348 349 349 345 347 348 342 341 346 349 350 351 350 349
353 356 355 354 352 350 345 339 340 337 336 346 348 348 350 349 351 350 351 352 351 352 351 351 349 353 355 355 353 349 348 351 352 351 350 350 350 350 350 352 353 353 354 354 354 355 355 353 352 352 348 348 349 347 344 342 344 345 345 345 344 343 342 341 341 340 340 339 339 338 339 339 337 337 336 336 343 349 352 352 352 352 351 349 348 348 344 343 343 340 341 344 348 350 350 349 348
353 354 357 356 350 346 343 341 340 334 335 345 347 348 349 349 350 349 350 352 352 350 349 351 350 353 354 355 354 349 349 351 352 351 351 351 351 351 350 352 353 354 354 354 355 354 356 354 353 353 351 352 351 350 348 346 345 346 345 346 345 343 342 341 341 340 339 339 338 339 338 336 337 338 337 337 342 347 351 352 352 352 352 350 349 345 340 339 339 340 344 346 347 348 348 349 349
352 354 358 354 344 339 339 343 341 335 337 346 348 348 349 349 349 349 350 350 351 349 348 350 349 351 352 352 352 349 350 351 352 352 351 352 351 352 350 351 353 354 354 354 355 354 355 356 355 355 353 353 352 352 352 349 346 346 346 347 346 344 342 341 341 341 340 339 340 341 340 341 344 342 343 344 345 347 350 352 352 353 352 351 350 344 339 340 341 345 348 349 348 346 348 348 348
351 355 358 348 341 337 339 345 341 336 341 347 348 348 350 350 349 350 350 349 350 349 349 350 348 349 350 351 352 350 350 350 352 352 352 353 352 352 351 351 353 354 354 354 355 355 356 356 356 356 356 355 353 352 354 353 348 345 346 346 346 343 341 339 340 342 343 343 343 343 345 350 352 350 351 351 349 350 350 351 352 352 352 349 348 344 339 340 344 348 348 348 348 347 350 350 346
353 357 354 343 344 343 344 348 344 344 345 346 347 348 349 350 351 351 350 351 351 350 350 349 348 350 351 353 352 350 350 350 352 352 353 353 352 353 352 351 353 353 353 354 355 355 355 356 357 357 357 356 354 354 354 354 350 348 350 349 347 345 342 341 344 347 349 350 348 349 352 353 353 352 355 354 353 353 350 350 352 352 351 347 345 341 339 342 345 346 346 347 348 348 352 352 350
355 357 352 346 349 348 346 348 347 348 347 345 348 348 349 350 351 351 351 353 352 351 352 351 350 351 352 352 352 351 351 351 352 352 353 353 353 353 352 352 353 353 353 354 355 355 356 356 357 356 357 357 355 355 354 355 353 352 354 353 351 351 349 348 351 353 354 355 354 354 355 353 352 353 352 350 350 351 348 349 351 351 349 344 341 340 339 340 343 344 345 347 349 351 352 352 351
354 354 353 351 350 349 347 348 347 347 344 345 346 347 349 348 351 351 350 353 354 353 353 352 352 353 351 350 351 351 350 351 351 352 353 352 353 353 352 351 352 353 353 353 354 356 356 356 356 355 356 356 355 355 354 355 355 353 353 353 353 353 353 353 355 355 355 356 356 356 355 353 352 352 349 345 349 353 351 349 350 351 351 345 344 347 344 340 344 347 347 349 351 351 351 351 349
353 353 354 353 350 349 347 347 347 345 345 346 346 348 349 348 350 350 350 353 352 351 352 352 352 352 352 349 350 352 351 352 351 351 352 353 353 352 351 351 351 353 353 352 354 356 357 356 355 355 355 356 355 354 354 354 354 353 353 353 352 353 353 355 355 356 356 356 356 356 355 353 351 352 351 350 353 355 355 353 352 354 355 352 349 352 351 348 351 353 352 351 351 349 351 351 350
353 354 353 353 351 350 349 348 348 346 346 347 346 348 348 349 351 350 350 351 348 347 348 350 351 351 352 350 350 352 351 350 352 351 351 352 352 352 351 351 351 352 353 353 353 355 356 356 355 355 355 355 355 354 354 353 353 353 353 353 352 353 353 355 356 356 356 355 355 355 354 353 351 351 352 352 353 353 354 354 353 354 355 354 351 352 353 352 353 352 352 352 351 351 352 352 351
353 352 352 353 352 353 352 350 350 348 348 347 347 347 347 349 350 350 350 348 346 346 347 348 350 352 353 352 351 349 348 348 350 351 350 351 351 351 351 350 351 352 353 353 353 354 354 355 355 355 355 355 355 353 353 353 353 353 353 353 352 353 354 356 356 355 356 355 354 355 354 353 351 351 351 352 353 353 354 353 353 354 355 355 354 354 354 353 353 351 351 352 352 351 351 352 352
351 350 350 352 351 352 351 351 350 348 348 347 346 346 345 348 348 348 350 348 347 348 347 348 351 354 353 351 350 348 348 349 350 351 350 350 350 350 350 350 350 352 353 353 353 354 354 354 354 354 354 354 354 354 353 353 353 353 353 353 352 353 355 355 355 355 355 355 355 355 355 353 352 351 352 352 352 353 354 353 354 354 355 355 354 355 354 354 354 352 351 351 352 351 350 350 350
351 349 347 350 350 349 348 348 347 347 348 347 347 346 344 346 346 347 349 348 348 349 349 350 352 352 351 350 350 350 349 351 352 351 350 350 350 349 350 350 350 351 353 353 353 353 354 354 354 354 354 354 354 353 353 353 353 353 353 354 353 353 354 354 354 355 355 355 355 354 354 354 352 352 352 352 353 354 354 354 354 354 355 355 354 355 355 355 355 354 352 351 352 352 350 349 350
349 349 347 349 348 347 347 347 347 347 347 346 347 345 344 344 345 346 347 348 348 349 351 352 353 351 351 351 350 350 349 350 353 352 350 349 350 350 349 350 350 351 351 352 353 353 354 353 354 354 354 354 354 354 353 353 353 353 353 353 353 354 353 354 354 354 354 354 354 355 354 354 353 352 352 353 353 354 355 354 354 354 354 354 354 355 355 355 355 354 353 352 353 353 352 351 351
348 348 347 349 346 347 347 346 346 345 345 346 346 345 342 342 345 347 346 348 349 351 353 352 353 352 351 350 350 351 350 351 354 353 351 350 349 349 349 350 349 351 351 351 352 352 353 353 354 354 354 354 354 354 353 353 354 353 354 354 354 354 353 354 354 353 353 353 354 354 353 353 353 353 353 354 354 354 355 355 355 354 354 354 354 355 355 355 354 354 354 353 353 354 353 353 352
345 347 346 346 344 345 344 342 342 341 343 343 344 344 341 341 345 346 346 349 350 351 354 354 353 353 352 351 351 352 352 353 354 353 352 351 350 349 349 349 349 350 350 350 351 351 352 353 354 354 354 354 354 354 354 353 354 353 353 353 353 354 354 354 353 353 353 354 354 354 353 352 353 354 354 354 354 354 355 355 355 355 354 354 355 356 356 355 355 355 356 355 354 354 353 353 353
343 344 343 341 340 339 338 338 338 339 340 340 341 338 338 342 344 346 346 349 351 350 354 354 353 354 353 352 351 352 354 354 354 353 353 352 351 351 349 349 349 350 350 350 351 350 350 352 353 354 354 354 354 354 354 353 353 354 353 353 353 353 355 354 353 353 353 354 354 354 353 352 352 354 355 355 354 354 356 356 356 355 355 355 356 357 356 355 354 355 355 355 355 354 353 353 352
341 340 338 336 333 333 335 335 335 336 337 339 338 328 331 343 345 345 347 350 351 350 353 354 353 354 353 354 353 353 354 354 355 354 353 352 352 352 351 351 350 350 351 350 350 350 350 350 351 353 353 354 355 353 353 353 353 354 353 353 353 353 354 354 353 353 353 354 354 353 352 352 353 354 355 355 354 354 355 357 357 356 356 356 357 358 357 355 354 354 354 354 354 353 353 353 351
337 335 333 333 325 326 336 334 333 337 335 338 338 324 328 341 344 344 347 349 350 350 353 354 353 355 353 354 354 353 354 354 355 355 354 354 353 353 352 352 351 351 352 351 350 350 350 350 350 352 352 353 354 354 353 353 353 353 354 354 353 354 354 353 353 353 354 354 354 354 353 354 353 352 353 355 354 354 355 356 357 356 357 356 356 358 357 355 355 355 354 354 354 352 351 352 350
333 326 323 328 322 324 337 334 333 337 335 337 336 326 330 339 341 343 347 348 349 350 353 353 353 355 354 354 354 353 354 355 356 355 354 354 354 355 354 353 353 353 353 353 352 351 351 351 351 350 351 353 353 353 353 353 353 352 353 353 353 353 353 353 353 353 353 354 353 354 354 354 352 350 351 353 354 354 354 355 356 358 358 357 356 358 357 356 355 356 356 355 355 352 349 350 348
330 325 317 321 321 323 331 333 333 334 335 338 336 331 334 339 339 343 347 347 348 350 351 354 354 355 356 354 354 353 353 353 354 355 355 354 355 355 355 355 354 354 355 354 354 353 352 352 352 351 351 352 353 353 353 352 353 352 352 352 352 352 352 352 353 353 353 353 353 354 355 354 352 351 351 353 353 353 354 355 356 358 358 357 357 358 356 356 356 356 357 356 355 353 349 348 347
322 324 319 322 326 323 325 330 333 332 334 337 338 336 337 338 339 342 345 346 348 350 351 353 354 355 356 355 354 354 354 353 353 355 356 355 355 356 355 356 354 355 356 356 356 355 355 354 353 353 351 351 352 353 353 352 353 353 353 352 352 352 352 352 352 353 353 353 354 354 355 355 353 353 352 353 354 353 355 356 356 358 358 357 358 358 357 356 356 355 356 357 355 352 349 348 347
316 317 317 319 325 325 324 329 332 332 333 334 336 337 338 338 338 341 343 344 347 349 350 352 354 355 356 356 354 354 354 354 354 355 356 356 356 356 356 356 355 355 356 356 356 356 356 355 354 355 353 352 352 353 353 353 353 353 353 352 352 352 352 352 353 353 353 352 352 354 355 355 354 354 353 354 355 354 355 356 358 360 359 358 359 358 357 356 357 355 353 357 357 352 349 348 346
320 319 319 318 320 323 329 333 333 332 332 333 334 334 336 337 336 341 343 343 345 347 349 351 354 354 355 355 354 354 355 353 355 355 355 356 357 357 356 357 356 356 356 356 356 356 357 356 356 356 356 355 353 353 353 352 352 352 352 351 351 351 351 352 353 354 354 352 352 354 356 356 355 355 355 356 356 356 357 358 359 360 358 359 359 358 357 356 357 357 354 356 357 352 349 348 344
323 322 320 320 319 322 331 335 333 332 330 331 335 333 334 335 334 339 342 343 344 344 347 351 354 355 355 356 354 355 355 354 355 356 355 356 357 357 356 356 357 356 356 356 356 357 357 357 357 357 356 356 355 354 353 352 351 351 352 351 351 352 352 353 355 355 354 352 353 355 356 356 355 356 356 357 359 359 359 359 361 361 359 359 360 359 359 358 356 355 354 354 354 350 348 347 342
323 321 318 317 318 321 330 335 332 331 329 329 335 334 333 335 333 335 337 341 343 343 345 349 352 355 355 357 356 355 355 354 354 355 355 356 356 357 357 357 357 357 357 357 357 357 357 357 357 358 357 356 356 355 354 353 352 353 353 353 353 353 354 355 356 355 353 352 354 357 357 356 356 357 357 358 361 361 360 361 362 362 361 360 361 361 360 359 355 353 353 352 352 350 349 346 342
322 321 317 314 318 322 326 331 332 331 329 330 335 333 333 336 334 333 334 339 344 343 343 346 351 355 356 357 357 356 356 355 355 355 356 356 357 357 358 358 358 357 358 357 357 357 357 357 356 358 358 357 357 356 356 355 354 355 355 354 354 353 354 355 354 354 354 353 355 358 357 355 356 357 358 359 360 361 361 362 361 362 362 361 361 362 361 359 356 354 353 352 352 350 349 347 343
322 320 314 313 320 320 317 325 332 332 330 331 334 331 331 335 334 334 333 335 342 343 341 344 348 353 355 356 356 356 357 357 357 355 355 356 357 358 358 359 358 358 358 358 357 357 357 357 356 358 358 358 358 358 357 356 356 357 356 355 355 354 354 356 355 355 357 355 355 358 357 355 355 356 357 359 360 362 362 362 360 361 362 362 361 362 362 360 357 354 353 353 352 350 348 346 343
320 320 316 314 319 320 318 325 331 330 329 331 331 323 324 333 335 335 334 335 340 341 342 344 347 351 353 354 355 356 357 358 357 356 354 355 357 359 359 359 359 358 357 357 358 358 357 357 357 357 358 358 359 358 358 357 358 358 357 356 356 356 356 357 358 357 358 357 355 356 358 357 356 356 358 359 360 362 363 362 361 361 362 363 361 361 361 360 357 354 353 354 353 351 347 345 344
316 319 321 318 320 321 321 325 324 320 320 328 328 316 318 329 334 336 335 338 342 342 345 346 348 351 353 354 355 355 357 357 358 357 355 356 357 359 359 359 359 358 358 358 358 358 358 357 358 358 358 358 358 359 359 358 359 359 358 357 357 357 357 358 359 358 357 357 354 353 358 359 358 356 357 359 359 361 363 362 362 361 361 362 361 361 360 358 357 354 354 353 353 352 349 345 344
312 318 322 321 322 321 321 322 319 313 314 326 331 319 316 323 330 336 338 342 345 346 348 349 350 352 353 354 355 355 357 356 357 357 355 356 358 359 359 360 359 358 359 358 358 359 359 358 359 358 358 359 359 359 359 359 359 359 358 357 356 356 357 357 358 358 355 356 355 353 356 359 359 357 357 359 359 361 362 362 363 362 360 361 362 362 360 358 356 355 354 354 353 353 351 348 346
313 320 323 323 322 321 322 322 317 315 317 324 329 324 317 316 325 337 340 341 346 347 350 351 350 353 353 353 354 355 356 356 356 358 356 356 358 359 360 360 360 358 358 359 359 359 359 359 360 359 359 359 359 359 359 359 358 359 358 357 355 355 355 356 358 358 356 357 358 356 357 359 360 358 356 358 360 360 361 362 362 363 361 361 361 361 360 357 356 356 356 355 354 353 352 349 347
319 323 325 324 324 323 323 320 316 318 318 315 320 323 319 315 323 336 339 336 340 345 348 350 351 352 353 353 353 354 355 355 355 356 356 356 358 359 359 359 359 358 357 358 359 359 360 360 360 361 361 360 360 360 360 359 358 359 359 357 356 355 355 356 358 359 358 359 360 359 357 359 361 360 357 358 360 360 360 361 362 362 361 361 361 360 359 357 357 357 356 356 354 354 353 350 348
323 324 325 325 325 324 323 320 316 316 316 312 315 319 317 315 319 328 331 331 336 341 342 346 350 352 353 353 352 352 354 355 355 355 356 357 358 359 359 360 360 358 358 358 359 359 359 361 361 362 362 361 361 361 361 360 359 358 359 358 357 357 356 356 358 360 360 361 361 361 359 360 360 361 359 359 360 360 360 360 361 362 362 360 360 359 358 357 357 357 357 356 355 354 353 351 349
324 324 325 323 323 324 322 320 316 314 313 313 314 317 317 315 316 322 328 332 336 339 338 341 347 350 353 352 351 351 353 355 355 355 355 357 359 359 358 359 360 359 358 358 359 359 359 361 361 362 362 362 362 361 361 361 360 359 359 359 358 358 358 358 358 360 362 362 361 361 360 360 360 360 360 359 361 360 360 360 360 361 361 360 359 359 359 358 357 357 357 356 356 356 354 352 350
325 324 323 318 317 318 317 316 316 313 312 313 315 318 316 312 316 324 332 335 337 338 336 337 343 350 353 352 350 351 352 354 355 355 355 356 358 359 359 359 360 360 359 359 359 359 360 361 362 363 363 362 362 362 360 360 361 360 359 359 359 359 360 359 359 360 361 362 361 360 360 361 360 360 360 359 360 360 360 361 360 360 360 360 360 359 359 358 357 357 357 357 356 356 355 352 350
325 323 318 313 313 315 315 313 313 312 312 314 317 317 314 312 318 328 333 333 335 336 337 336 338 347 352 352 351 351 352 352 354 355 354 356 357 357 359 359 360 361 360 359 359 359 360 361 362 364 364 363 362 362 361 361 361 361 360 360 360 361 361 361 360 359 360 361 361 360 360 361 361 361 360 359 359 360 360 362 362 360 360 360 360 359 358 359 358 357 357 357 356 356 355 353 351
322 318 314 312 313 315 316 314 313 313 312 314 317 317 313 313 321 330 331 331 334 335 336 336 335 341 349 352 351 350 351 352 353 355 354 356 357 357 359 360 360 361 361 360 360 359 360 361 362 364 364 364 363 362 361 361 361 361 362 362 361 362 362 362 361 359 360 361 360 360 360 360 361 361 360 359 359 360 360 362 363 362 361 361 361 360 359 359 359 358 358 357 356 356 355 353 352
322 322 319 314 313 315 315 314 312 312 311 312 316 316 311 311 320 331 330 330 332 333 333 334 335 337 342 348 350 349 351 352 353 354 354 355 357 358 360 360 360 361 361 361 360 360 361 362 362 364 364 364 363 363 362 361 361 361 361 362 362 363 363 363 362 360 360 360 360 360 360 359 360 360 360 361 360 360 361 362 363 362 361 361 361 360 360 359 358 358 358 357 357 356 355 353 352
322 324 319 314 315 316 313 312 312 311 311 311 312 314 315 318 327 333 331 330 331 331 331 332 333 334 336 343 348 348 349 351 352 353 354 355 356 359 360 359 360 361 360 360 360 361 362 362 363 363 364 364 364 363 363 362 361 361 362 362 362 363 363 362 363 361 360 360 360 360 360 360 359 360 361 362 362 362 361 362 363 362 361 361 361 360 360 360 359 358 358 358 357 355 354 353 353
321 319 315 318 323 320 313 311 313 312 311 312 312 313 316 320 324 328 329 330 330 331 331 331 333 335 336 342 346 347 348 350 352 354 356 356 356 358 360 359 359 360 360 360 361 361 362 361 363 364 364 364 364 364 363 362 362 362 362 362 362 363 362 361 363 363 361 361 361 361 361 361 360 360 361 362 363 363 362 362 362 361 361 361 361 360 360 360 360 360 359 358 357 355 353 353 353
320 315 317 322 324 322 316 312 313 312 311 311 310 310 313 313 317 325 329 328 329 331 330 331 333 335 338 342 346 348 349 350 352 354 356 356 355 357 358 359 358 359 359 360 361 361 361 361 362 363 364 365 364 364 363 363 363 363 363 363 363 362 362 362 363 363 361 361 361 361 360 360 361 360 360 361 363 364 364 363 362 361 362 361 361 360 360 360 360 360 359 358 357 356 354 353 353
322 320 323 322 316 315 315 314 313 312 311 311 309 309 310 310 314 323 327 327 328 330 330 331 331 333 336 339 344 348 349 350 352 353 355 355 354 355 359 358 357 358 359 360 360 361 361 361 361 362 364 364 363 363 363 363 363 362 362 363 363 362 362 363 363 363 362 361 361 362 361 361 361 360 361 362 363 364 364 363 362 362 362 361 361 360 360 360 360 359 358 357 357 358 356 354 354
324 323 325 323 317 315 315 315 313 311 311 312 310 309 310 314 321 325 327 330 330 329 331 331 331 332 335 337 339 345 349 351 352 352 353 355 354 354 357 357 356 357 358 359 359 359 359 360 360 361 362 362 363 363 363 363 363 362 362 364 363 363 362 363 364 362 362 362 361 362 361 360 360 361 361 362 363 363 364 364 362 361 361 361 360 359 359 360 360 359 358 357 357 357 357 354 354
320 318 318 319 319 319 318 316 313 311 311 311 311 310 310 318 327 327 327 330 329 329 331 331 332 331 332 336 337 341 348 351 351 351 352 353 353 353 356 356 356 356 357 357 357 358 358 359 360 360 361 362 362 362 362 363 363 362 363 363 363 363 362 363 364 363 363 362 361 361 361 361 361 361 361 362 363 362 362 363 362 361 361 361 360 360 360 360 360 359 359 358 357 356 356 355 355
321 319 318 318 318 316 315 316 314 312 310 310 312 310 311 320 329 328 327 328 328 330 330 330 332 331 331 334 334 338 347 351 351 350 350 352 352 353 354 356 355 354 355 356 355 356 357 357 359 359 359 360 360 360 361 362 362 362 363 363 363 364 363 363 364 363 362 362 362 361 361 361 361 361 361 362 362 363 362 362 362 361 361 362 361 360 360 360 360 359 359 359 358 357 356 355 355
Wind_Speed
13 13 13 11 11 10 7 6 2 4 5 1 3 3 4 5 3 4 7 5 4 6 3 5 9 6 2 5 7 10 10 8 4 2 5 10 19 20 17 21 21 20 20 20 22 23 24 26 26 25 24 24 23 23 23 22 22 21 21 21 20 20 21 19 19 18 17 17 16 15 15 14 14 13 13 13 12 12 11 12 12 11 11 12 11 11 11 10 10 9 8 8 8 7 7 7 7
13 13 13 11 12 9 3 4 4 2 3 2 4 4 5 4 2 5 7 4 5 6 4 8 9 6 5 7 8 8 11 11 8 8 10 19 23 19 20 21 21 20 20 20 20 21 22 25 26 24 24 24 23 22 22 22 21 21 21 21 20 21 20 19 19 18 17 16 16 15 15 14 13 13 12 12 11 11 11 11 11 11 10 11 11 10 10 10 10 9 9 8 8 8 7 7 7
13 12 13 10 9 7 2 4 4 3 2 3 5 5 4 4 6 7 7 7 8 8 7 9 8 6 5 7 7 6 8 8 12 13 13 21 19 18 23 21 21 21 20 20 20 20 20 24 26 23 23 23 22 22 22 21 21 21 21 21 22 21 19 19 19 17 17 16 16 15 14 14 13 13 12 11 11 10 10 10 10 10 10 10 10 9 9 9 9 9 9 9 8 8 7 7 7
12 11 11 8 5 5 3 4 3 4 3 3 5 6 5 6 8 8 8 9 9 9 8 9 7 4 2 7 7 7 9 9 14 15 13 17 18 21 24 21 21 21 20 20 20 20 21 24 25 23 23 22 21 21 21 21 21 21 21 21 22 21 20 19 18 17 16 15 15 15 14 13 12 12 11 11 10 10 10 10 9 9 9 10 9 9 9 9 9 9 9 9 9 8 8 8 8
11 9 8 6 3 1 3 3 3 1 4 3 4 6 7 8 8 9 9 10 9 8 9 8 6 6 7 8 4 5 9 10 14 15 14 18 22 25 24 21 20 19 20 21 20 19 22 25 24 23 22 21 20 20 21 21 21 21 21 21 21 21 20 18 17 16 15 15 15 14 13 12 12 11 10 10 9 9 9 9 9 9 9 9 9 9 8 8 8 8 9 9 9 9 8 8 8
9 8 6 6 3 2 4 2 1 3 6 3 4 6 7 7 8 10 9 10 9 8 9 6 6 8 8 8 6 6 6 9 13 14 17 21 25 25 23 22 20 19 20 21 20 18 22 24 23 23 22 21 20 20 21 21 21 21 21 20 20 20 19 18 17 16 15 14 13 13 12 11 11 10 9 9 9 9 9 9 8 8 8 8 8 8 8 8 8 8 8 8 9 9 9 8 9
8 6 4 5 2 2 5 1 2 4 6 3 5 6 6 8 8 10 11 10 8 8 7 5 7 8 7 6 7 8 6 9 13 14 19 24 26 25 23 22 20 20 20 20 20 19 21 22 22 22 21 21 20 21 21 21 21 21 21 20 20 19 18 17 16 16 15 13 13 12 11 11 10 9 9 9 9 9 9 9 8 8 8 8 8 8 7 7 7 8 8 8 9 9 9 9 9
7 5 3 3 2 4 4 1 3 3 5 3 4 6 6 8 7 9 10 8 8 8 7 6 8 5 7 5 5 7 6 10 14 17 22 26 27 25 23 22 22 22 21 20 19 20 21 21 20 20 21 21 21 21 21 22 21 20 20 19 19 18 17 16 15 15 14 12 12 11 10 10 9 9 9 9 9 8 9 8 8 8 8 8 7 7 7 7 7 7 8 8 9 9 9 9 9
7 5 3 3 3 3 3 1 4 3 5 4 4 5 4 6 6 8 8 7 7 8 8 9 8 4 8 7 7 8 7 11 16 20 23 26 27 25 23 22 23 23 22 21 21 22 22 21 21 21 22 22 22 21 21 21 21 20 19 18 18 17 16 15 14 13 13 12 11 10 9 9 9 9 9 8 8 8 9 9 8 8 8 8 7 7 7 7 6 7 8 9 9 9 9 9 9
6 5 3 4 4 2 1 3 4 4 5 4 4 5 5 5 6 6 6 7 7 7 9 8 6 6 9 9 8 6 8 14 19 21 24 26 26 24 22 22 23 22 22 21 23 23 23 23 22 23 23 23 22 21 21 21 21 20 18 18 17 16 16 15 14 12 12 11 10 9 9 8 8 9 9 8 8 8 8 9 8 8 8 8 7 7 6 7 7 8 8 9 9 10 10 9 9
4 3 3 4 4 1 2 3 4 5 5 3 5 6 5 5 5 5 5 7 7 7 9 8 6 8 9 9 6 6 12 18 21 23 24 25 25 23 22 21 22 22 21 22 23 23 23 23 23 23 23 23 22 21 21 20 20 19 18 17 16 16 15 14 13 12 11 10 9 9 8 8 7 8 8 8 8 8 8 8 8 8 7 7 7 6 6 7 7 8 8 9 9 10 10 9 9
4 3 3 4 2 1 2 2 3 5 5 4 6 6 5 6 5 6 6 7 7 7 9 8 7 9 8 8 5 9 16 19 22 25 25 25 24 23 21 20 21 21 21 22 22 22 23 23 23 23 23 22 21 20 20 20 20 19 18 17 15 14 14 13 12 11 11 10 9 8 8 7 7 7 8 8 7 7 7 7 8 7 7 7 7 6 6 7 8 8 8 9 9 9 9 9 9
4 3 4 4 3 2 2 1 3 3 4 4 6 7 6 6 5 6 6 6 7 7 9 7 7 8 6 8 7 11 15 20 24 24 25 24 22 22 20 20 20 20 20 21 21 22 22 22 21 21 22 22 20 19 20 20 19 18 17 16 14 13 13 12 11 10 10 9 8 7 7 7 6 6 7 7 7 7 6 6 7 7 7 6 6 6 6 6 8 8 8 8 9 9 9 9 9
4 3 4 4 3 2 2 1 2 2 5 6 7 7 6 5 4 5 5 7 6 5 8 7 7 7 7 9 8 9 15 23 25 24 25 23 21 21 20 20 20 20 20 20 20 21 21 20 20 20 21 21 20 19 20 20 18 18 17 15 14 13 12 11 10 9 9 8 7 6 6 6 6 6 7 7 6 6 5 5 6 7 7 6 5 5 5 6 7 8 8 8 8 8 9 9 8
4 2 4 5 4 3 2 1 1 1 5 6 7 8 7 4 4 5 4 5 7 6 8 8 6 4 7 9 8 11 19 26 26 25 25 22 21 20 20 20 19 19 20 19 19 20 20 19 19 20 21 20 19 19 19 19 18 17 16 15 14 12 11 10 9 9 8 8 6 6 5 6 6 5 6 6 6 5 5 5 6 7 6 5 5 4 5 6 7 8 8 8 8 8 8 8 7
4 2 4 4 4 2 2 2 2 2 4 5 6 7 7 6 5 5 3 3 7 8 7 7 6 2 4 8 11 19 25 28 28 26 24 22 21 20 20 19 18 19 19 19 19 19 19 18 18 19 20 20 19 18 18 18 17 17 15 14 13 12 11 10 9 8 8 7 6 6 5 6 5 5 5 5 5 4 4 4 5 6 5 4 4 4 5 6 7 8 7 7 8 8 8 8 8
3 4 4 4 3 1 2 2 1 1 4 5 6 7 6 6 6 4 5 4 7 9 6 6 6 2 2 7 17 25 28 29 28 27 25 23 22 20 20 20 19 19 19 19 19 19 19 19 18 18 19 20 19 18 18 18 18 17 15 14 13 12 11 10 9 8 8 7 7 6 5 5 5 4 5 4 3 4 3 3 5 5 5 4 4 4 5 6 7 7 6 6 8 8 9 9 7
4 4 5 4 2 1 3 4 5 3 4 3 4 6 5 6 8 6 6 7 8 9 7 7 7 4 6 14 24 27 28 29 28 28 26 24 22 21 20 20 20 20 20 20 19 19 20 19 19 18 19 19 19 18 18 17 18 17 15 14 13 11 11 10 9 8 8 8 7 6 5 5 4 4 4 4 3 4 2 2 4 4 4 3 3 4 5 6 5 5 4 5 7 8 8 6 5
6 4 4 4 0 3 3 4 5 4 4 3 2 6 5 5 8 7 7 9 10 10 9 9 9 9 11 19 26 28 29 29 28 28 27 25 24 22 22 21 21 21 21 21 20 20 20 19 19 19 18 19 19 17 17 17 17 17 15 14 13 12 11 10 10 9 9 8 8 7 5 5 4 4 3 3 3 3 2 2 3 3 4 3 3 4 4 4 3 3 4 5 6 6 6 4 3
7 5 5 3 0 2 1 2 3 5 5 4 1 4 5 4 6 7 7 7 11 10 9 11 12 13 15 19 24 28 28 28 28 27 27 26 25 24 23 23 22 22 22 21 21 20 20 20 19 19 19 20 19 17 16 16 17 16 15 14 13 12 12 11 11 10 9 8 7 6 5 5 4 4 3 2 2 2 1 1 2 3 3 3 5 3 3 3 2 3 4 5 4 3 4 4 4
6 6 6 1 0 4 3 0 2 4 6 6 4 2 5 5 5 7 6 5 7 8 10 12 13 17 18 20 23 27 27 26 27 27 27 26 25 24 23 23 23 21 21 21 21 21 20 20 20 20 19 20 19 17 16 16 16 16 15 14 13 12 12 11 11 10 9 8 7 6 5 5 5 4 3 3 2 2 2 1 1 3 2 2 4 3 2 2 2 3 3 3 2 3 4 3 4
5 8 8 3 3 3 3 1 2 3 6 6 3 1 2 5 6 8 7 5 2 2 8 11 13 18 20 22 22 24 25 25 26 27 27 27 26 26 24 23 22 21 20 20 21 22 22 21 21 20 20 20 19 17 16 16 16 15 14 14 13 12 11 11 10 10 9 9 8 6 5 5 5 4 4 3 3 3 2 1 2 2 2 2 2 2 2 2 1 2 2 2 3 3 3 3 3
7 8 9 8 8 6 2 4 4 5 7 6 4 4 2 6 7 8 10 9 1 3 4 9 13 17 21 22 22 22 23 23 25 27 28 28 28 27 26 25 24 22 21 21 21 22 23 22 22 21 20 20 19 17 16 15 15 15 14 13 13 12 11 10 10 9 9 9 7 6 6 5 5 5 4 4 3 3 2 1 2 2 1 2 2 1 1 1 1 1 2 2 3 2 2 2 1
10 9 9 8 8 9 7 6 7 8 8 7 6 6 5 8 7 7 10 11 4 1 5 10 14 18 20 21 21 21 22 23 25 26 27 27 27 27 26 26 25 23 21 21 21 22 23 23 23 22 21 20 19 18 16 15 15 15 14 13 13 12 11 10 10 9 8 8 8 7 6 5 5 5 5 4 4 3 3 2 2 1 1 2 1 1 1 1 1 1 1 1 2 2 2 2 1
14 12 8 7 8 8 8 8 10 10 8 7 8 9 8 8 7 6 8 10 7 5 8 13 16 18 19 20 21 20 20 22 24 25 25 25 25 26 25 24 25 24 22 22 21 22 23 24 24 22 21 20 19 18 17 15 15 15 14 13 13 12 11 10 9 9 8 8 8 8 6 5 5 5 5 4 4 3 3 2 2 1 1 1 1 1 1 1 0 1 0 1 2 2 2 2 2
12 14 11 8 10 9 9 10 11 10 8 7 9 11 9 7 8 7 9 10 9 8 11 15 17 18 18 18 20 20 20 21 23 24 25 25 25 26 25 25 25 25 24 24 22 21 22 23 23 23 22 20 19 19 17 16 15 15 14 13 13 12 12 10 9 9 8 8 8 8 8 6 6 5 5 4 3 3 3 3 2 1 1 1 1 1 1 1 1 1 1 1 1 2 2 1 2
5 11 12 12 12 10 10 11 11 10 9 9 11 11 8 7 8 7 7 11 11 11 13 15 17 17 17 17 18 18 19 21 23 24 24 24 25 27 26 26 26 25 25 25 24 22 22 23 23 23 22 21 20 19 17 17 16 15 15 14 13 13 12 11 10 10 9 9 8 9 9 8 7 5 5 4 4 3 3 3 2 2 1 1 1 0 1 1 1 1 1 1 1 2 1 1 2
5 7 9 13 13 11 12 13 12 10 9 10 11 11 9 8 10 8 6 12 15 13 14 16 16 16 16 17 17 16 16 21 23 23 23 23 24 26 27 27 26 26 25 26 25 23 23 23 23 23 22 21 20 19 18 17 16 16 15 14 14 13 13 12 11 10 10 9 8 9 9 9 8 6 5 5 5 4 4 4 3 2 2 1 1 0 0 1 1 1 1 1 1 1 1 1 2
9 9 10 12 13 13 14 14 13 11 9 8 8 10 10 11 13 11 8 13 16 15 15 16 15 15 15 16 15 14 15 20 22 21 23 23 23 25 27 27 27 26 26 27 26 25 24 23 23 23 23 22 21 20 18 18 17 16 15 14 14 13 13 13 12 11 10 9 9 9 10 10 9 7 6 6 5 5 5 5 4 3 3 2 2 1 1 1 0 1 0 1 2 2 2 1 1
9 10 10 10 10 12 13 14 13 12 9 7 7 7 8 11 13 12 11 15 17 16 16 16 15 14 14 15 14 14 16 19 21 22 23 23 23 24 25 26 27 26 25 26 27 26 25 24 23 22 23 23 22 20 19 18 17 16 15 14 14 14 13 12 12 11 10 10 9 10 10 10 9 8 7 6 6 6 5 5 4 4 3 2 2 2 1 1 1 1 1 2 2 2 2 1 2
9 10 9 8 8 8 9 9 10 11 8 9 10 7 5 7 11 12 12 16 17 16 16 16 15 14 14 15 15 15 16 19 22 24 24 24 23 23 24 25 26 25 23 25 27 27 26 25 23 23 23 23 22 20 19 17 17 15 15 14 13 14 13 12 12 11 11 10 9 10 11 10 10 9 8 6 6 6 5 5 4 3 3 2 2 2 2 2 1 1 1 2 2 2 1 1 2
8 8 8 9 9 7 9 9 9 10 7 10 11 7 6 5 8 12 12 15 16 15 16 16 16 16 15 15 15 15 16 19 23 24 25 25 24 22 24 25 25 25 23 24 26 27 26 25 24 24 24 24 23 21 19 17 16 15 15 14 14 13 13 12 12 11 11 11 10 10 11 11 10 9 8 8 7 7 6 5 3 3 2 2 2 2 2 2 2 2 2 2 2 2 2 2 2
8 8 9 10 11 10 8 9 9 9 7 10 12 8 6 4 7 10 11 13 15 14 14 17 17 17 16 15 14 14 15 17 20 23 25 25 24 23 24 25 25 25 23 24 26 27 26 25 25 24 24 25 24 22 21 19 17 16 15 14 14 14 13 13 12 12 11 11 11 11 11 12 11 10 9 9 8 7 7 5 4 3 3 3 2 3 4 3 2 2 2 2 2 2 3 3 2
8 8 9 9 10 10 8 8 8 8 8 10 12 11 9 4 5 8 10 12 13 13 13 16 16 15 16 14 15 15 15 17 17 21 26 26 24 24 23 24 26 25 23 24 25 26 26 26 25 24 24 25 25 24 23 21 19 17 16 16 15 15 14 13 12 12 12 12 12 11 11 11 11 11 10 10 9 8 7 6 5 4 4 3 3 4 4 3 3 2 2 1 1 3 3 3 3
10 10 9 10 9 9 10 7 7 8 8 9 10 11 12 9 6 8 10 11 12 12 12 14 14 15 15 15 15 15 16 17 18 22 27 26 25 24 23 24 25 25 24 24 25 26 25 25 24 24 23 24 25 24 23 21 20 19 18 17 17 16 15 14 13 13 13 13 13 12 12 12 11 11 11 10 9 9 8 7 6 5 5 5 4 5 5 4 4 3 2 1 0 2 3 4 4
11 11 9 11 10 10 12 8 4 4 7 9 11 10 11 10 8 8 9 10 11 11 11 12 13 14 15 15 15 16 17 17 18 24 27 26 25 25 24 24 25 25 24 24 26 26 25 24 24 24 23 24 24 24 23 22 21 21 19 19 18 18 17 15 14 14 14 14 13 12 13 12 11 11 11 10 10 9 8 7 6 6 6 6 6 6 5 4 4 3 2 2 1 1 2 3 3
8 10 10 12 11 9 12 9 5 4 7 10 11 11 10 8 7 7 8 10 11 12 12 12 14 14 15 16 16 17 17 16 18 23 26 26 26 25 25 24 24 25 24 25 26 27 26 25 25 25 24 24 24 25 24 24 23 22 21 20 19 18 18 16 15 15 14 14 13 12 12 12 11 11 11 10 10 9 8 7 7 7 7 6 6 6 5 5 5 3 2 2 1 1 1 2 3
9 9 9 11 12 10 11 8 5 5 7 10 11 11 11 10 10 9 10 12 12 12 14 14 16 16 15 16 18 17 15 14 17 21 24 27 26 26 26 24 25 26 25 25 26 27 26 26 26 25 24 24 25 26 25 24 23 21 20 19 18 17 17 17 16 15 14 13 13 13 13 12 11 11 11 11 10 9 9 8 7 7 7 7 6 6 6 6 5 4 2 2 0 1 2 3 2
11 9 9 9 10 11 12 10 7 6 6 8 11 12 12 12 11 11 11 12 12 12 14 15 16 17 15 16 16 16 15 15 18 19 22 26 26 26 25 24 25 26 26 26 26 26 26 27 26 25 25 26 26 26 25 23 22 20 19 18 17 16 15 16 15 14 14 14 13 13 14 13 12 12 11 11 11 10 10 9 8 7 7 7 6 6 6 6 6 4 3 2 1 1 2 4 2
12 11 10 10 10 10 9 10 10 9 7 9 11 10 11 11 11 11 12 12 12 12 14 14 15 16 16 17 15 16 17 17 18 20 21 24 26 27 26 25 25 26 26 26 26 27 27 27 27 26 26 26 26 26 25 23 21 20 18 16 15 14 13 13 14 13 13 14 14 14 14 14 14 13 12 12 11 10 10 10 9 8 8 7 7 6 6 7 6 5 4 3 2 1 2 4 3
14 15 13 11 12 12 9 6 6 7 8 10 11 9 10 12 13 13 12 13 13 12 13 14 14 15 15 15 16 17 18 17 18 19 20 21 24 26 26 25 25 26 27 27 27 27 26 27 28 27 26 26 25 26 25 23 20 20 18 15 14 13 13 13 14 15 15 15 15 15 14 15 15 14 13 13 12 11 11 10 9 8 8 8 8 8 7 8 7 5 4 4 3 2 1 3 3
13 16 18 16 13 13 12 8 6 6 8 10 11 10 10 12 15 15 11 11 12 11 12 14 14 14 14 14 15 16 17 17 17 18 19 19 22 25 26 26 26 26 27 27 28 27 26 26 27 27 26 25 24 25 25 24 22 21 20 18 17 17 16 16 16 16 16 16 16 15 15 15 15 15 15 14 13 12 11 11 10 9 8 8 8 8 8 8 7 6 5 5 4 2 1 2 3
10 12 16 19 16 14 13 11 9 8 8 8 9 10 9 10 13 13 9 10 11 11 12 13 13 13 14 13 14 15 16 17 16 17 18 19 21 23 25 27 28 27 27 27 27 27 27 26 26 27 26 24 24 24 25 25 23 22 22 22 21 20 18 18 17 16 16 15 15 15 15 15 16 16 15 15 15 14 13 12 11 10 10 9 9 9 9 8 6 6 6 5 4 4 3 3 4
9 9 10 16 18 17 14 11 10 8 9 8 9 10 9 9 11 9 10 12 12 12 12 13 13 14 15 14 15 16 16 17 16 17 19 20 21 24 27 29 30 28 27 27 26 27 28 27 27 27 26 24 24 24 26 27 24 23 24 23 22 21 20 17 16 16 15 15 15 15 15 14 16 17 17 16 16 16 15 13 12 11 11 10 10 10 10 8 6 6 7 6 5 5 5 5 5
10 7 6 10 14 16 14 11 10 9 9 10 11 12 10 10 11 10 11 13 12 13 14 14 14 15 16 16 17 17 18 18 18 18 20 20 22 27 29 30 29 28 27 28 28 27 27 27 26 27 27 25 24 25 26 27 26 24 24 23 21 20 19 17 15 15 16 15 15 16 16 15 15 17 18 17 16 16 16 15 14 13 12 11 11 11 10 8 7 7 8 7 7 6 6 6 6
11 7 5 8 10 12 12 10 9 9 11 13 13 14 11 10 11 11 12 13 13 13 12 14 15 16 16 16 17 18 17 17 18 19 19 21 25 28 29 28 28 28 28 28 27 26 26 27 26 27 28 26 25 26 27 27 27 25 23 23 22 20 19 17 15 15 16 16 16 16 16 16 15 16 17 18 17 17 17 16 15 14 14 13 12 11 10 9 9 9 8 8 8 7 6 7 7
13 10 8 8 8 9 10 9 8 9 12 14 16 16 13 11 11 11 11 11 12 13 12 13 14 16 17 16 16 17 16 16 17 19 19 21 25 27 27 26 27 27 27 27 26 26 26 26 27 28 28 26 25 26 27 27 27 25 24 24 24 22 20 19 18 17 17 17 17 17 16 16 16 16 16 17 18 18 18 17 16 15 14 13 12 12 12 10 10 9 9 8 8 8 8 8 8
13 10 8 8 7 7 7 7 8 10 11 10 14 17 16 14 11 9 12 14 14 14 13 13 14 16 17 15 15 16 16 17 17 17 18 19 22 24 25 26 27 27 27 27 27 27 26 26 27 27 27 26 25 26 27 27 26 26 25 25 25 24 22 21 21 20 19 19 18 17 16 16 16 16 16 17 18 19 18 18 17 16 15 14 13 13 12 11 10 9 9 9 9 9 9 9 9
13 10 9 8 7 7 7 8 9 11 10 8 11 14 16 15 11 11 13 14 15 15 13 14 13 14 16 16 16 15 15 17 17 17 17 18 18 20 23 26 27 28 29 29 29 29 28 28 28 28 29 29 27 27 28 28 26 26 26 25 25 24 24 24 23 22 21 20 19 19 18 18 17 17 18 18 18 18 18 18 18 18 16 15 14 14 13 12 11 10 10 9 9 10 10 10 10
14 11 10 10 8 8 9 9 9 9 9 10 10 10 12 12 10 14 18 15 13 13 12 13 12 12 14 16 16 15 16 17 16 17 17 18 18 18 22 26 28 29 31 31 31 30 29 29 30 30 30 30 29 28 29 29 28 27 26 26 24 24 24 24 24 23 22 21 20 21 21 19 19 19 20 20 19 19 18 18 18 18 17 16 15 15 14 13 12 12 11 10 10 11 11 11 11
14 12 11 10 9 8 8 7 8 9 8 11 12 8 8 8 3 7 15 17 15 14 13 14 13 13 13 15 16 16 17 17 16 17 18 19 20 20 23 26 28 30 32 32 31 30 30 29 31 31 30 31 31 30 30 30 29 28 27 27 25 24 24 24 23 23 22 22 21 21 21 21 20 20 20 21 20 19 19 18 18 19 18 17 16 15 15 15 14 14 13 12 11 12 12 12 12
12 12 11 11 10 9 5 4 5 6 6 9 11 7 6 3 1 1 6 12 15 15 15 15 15 15 14 14 15 15 16 17 17 17 19 20 20 21 23 26 28 30 32 32 32 32 31 30 31 33 32 32 32 31 31 31 31 29 29 29 27 25 24 23 23 24 24 23 22 21 22 22 21 20 19 20 20 21 21 20 19 19 18 18 17 17 16 15 15 15 14 13 12 13 13 13 13
9 12 13 12 11 10 7 5 4 4 6 7 8 9 7 5 6 7 9 10 13 14 14 14 14 14 14 12 13 14 15 16 17 17 18 20 20 21 25 27 28 30 32 33 34 34 33 32 31 33 33 32 33 33 32 32 31 31 30 31 29 27 26 25 25 26 25 23 22 22 22 22 22 21 19 19 20 21 22 21 20 19 19 19 18 18 17 16 16 16 15 14 14 14 14 14 14
8 11 13 11 10 10 8 7 6 7 8 7 9 12 10 8 7 9 15 15 13 14 15 15 14 13 13 13 13 14 15 16 18 18 18 18 19 21 24 28 30 32 33 34 35 35 34 33 32 33 33 34 34 34 33 32 32 32 31 31 31 30 28 28 27 25 24 23 23 23 23 22 22 22 20 19 20 21 22 22 21 19 19 19 19 19 18 18 17 17 16 16 16 15 15 15 15
13 8 11 11 10 10 8 7 8 9 9 8 11 13 10 9 6 5 12 16 16 16 15 14 15 14 14 14 14 15 15 14 16 16 16 17 19 21 24 29 31 33 33 33 35 34 33 34 33 33 35 36 36 34 33 33 33 32 31 32 33 31 29 29 28 25 24 24 25 24 24 24 22 22 22 21 21 21 21 22 22 21 20 20 20 19 19 19 18 18 17 17 17 17 17 17 16
16 10 11 11 8 8 9 8 7 8 8 7 9 11 8 8 9 9 9 11 13 15 14 14 15 15 14 14 14 14 14 13 14 15 16 18 20 22 26 30 31 32 31 31 32 33 33 34 34 34 34 34 34 33 33 33 33 33 31 31 32 32 32 31 29 26 25 26 26 25 24 24 23 22 22 23 22 22 22 22 22 22 21 21 20 20 20 20 19 19 18 18 18 19 19 18 17
15 12 12 12 9 7 8 9 9 8 8 7 7 8 5 1 5 11 13 11 12 12 12 13 14 15 15 14 14 13 14 15 15 15 17 19 20 22 26 29 28 29 29 29 30 32 33 33 33 34 33 32 34 35 34 33 33 33 32 32 32 33 34 32 29 27 27 27 27 27 25 24 24 24 23 23 24 24 24 23 22 22 22 22 21 21 21 22 21 20 19 18 18 20 20 19 18
15 12 12 12 11 9 8 9 10 9 8 7 6 6 3 2 2 5 7 10 11 11 11 11 12 14 13 13 14 13 13 14 15 15 16 17 17 18 22 25 26 26 28 30 31 31 32 32 33 33 34 34 35 36 35 34 33 33 34 34 33 33 33 33 30 29 29 28 28 28 27 26 25 25 25 25 25 25 25 25 24 23 23 22 22 22 22 23 22 21 21 20 19 21 22 21 20
Wind_Direction
147 154 157 163 164 154 162 196 250 195 233 313 60 85 81 36 63 101 106 125 118 113 99 114 127 124 90 57 86 90 57 42 48 71 101 123 140 145 143 140 141 137 136 136 140 144 143 140 138 137 134 134 132 131 134 136 137 135 134 134 134 135 137 134 130 128 125 123 122 121 118 115 112 108 106 103 100 97 95 95 95 93 89 89 88 86 86 85 84 86 88 89 94 95 97 100 96
157 159 163 167 168 170 170 203 257 214 203 51 51 46 90 101 95 90 93 101 88 109 129 124 125 106 91 87 96 100 68 47 70 89 103 130 139 143 143 141 141 138 136 137 140 141 144 142 138 135 134 133 131 132 136 138 138 137 137 137 137 138 139 135 131 128 125 125 124 122 117 114 112 108 105 101 99 97 96 94 92 91 87 86 86 85 85 85 83 82 81 79 86 91 92 101 103
163 162 165 170 178 198 255 210 266 355 65 62 68 59 89 97 84 84 85 90 103 129 136 128 123 100 137 127 84 71 79 77 103 108 119 136 141 145 146 143 140 138 137 140 143 142 144 144 138 135 136 133 132 136 139 141 141 141 141 140 141 140 139 135 131 128 126 127 125 121 116 112 109 106 102 98 97 95 94 92 89 87 83 83 83 82 83 84 82 80 78 75 79 85 86 92 99
164 171 173 179 201 215 254 237 283 8 47 39 65 75 75 77 88 92 91 105 124 141 140 137 122 59 72 105 78 69 90 100 116 121 131 142 143 145 146 143 140 138 140 144 146 144 146 147 140 138 138 135 136 140 143 144 145 144 144 143 143 141 138 135 131 129 129 128 125 119 114 109 105 101 99 97 95 92 91 89 86 83 80 79 80 80 81 81 79 79 77 75 76 82 84 86 90
165 181 185 206 257 271 276 268 265 9 64 53 73 76 76 82 96 100 104 121 136 144 145 146 123 92 70 65 57 91 101 109 124 130 134 138 140 143 145 144 141 139 142 145 146 144 148 149 143 142 140 139 143 145 148 148 148 146 145 143 142 142 138 136 133 131 131 128 123 117 113 108 103 100 97 96 94 93 90 87 85 82 78 75 76 78 78 78 78 76 76 76 75 78 81 85 87
170 183 193 229 278 327 275 258 240 63 69 53 75 77 79 89 99 107 114 126 138 144 150 149 123 125 98 64 58 80 98 120 133 137 135 136 141 144 144 146 144 140 144 147 147 145 150 151 145 145 142 142 147 149 152 152 150 147 144 142 142 141 138 137 134 132 132 128 122 117 114 109 104 101 99 97 95 93 88 85 83 82 79 75 75 75 75 74 73 73 75 75 74 76 79 85 87
178 184 195 234 251 238 264 295 51 63 77 24 55 81 90 100 110 120 125 133 141 149 157 142 131 129 108 106 88 70 79 122 135 138 137 139 142 145 145 148 145 143 145 146 147 147 151 150 147 147 145 146 150 152 155 155 150 146 144 145 144 141 137 138 137 135 133 128 123 120 119 113 107 103 102 99 95 92 86 82 80 80 78 77 77 75 74 73 74 75 78 77 75 76 78 84 88
190 203 229 250 243 214 260 354 69 58 84 56 55 69 89 113 128 134 134 140 148 159 161 150 162 137 106 138 104 86 107 129 134 135 139 142 145 146 148 149 147 147 147 146 144 149 154 150 150 150 150 153 154 156 157 156 150 146 146 148 146 141 138 140 139 137 134 131 127 126 125 116 110 105 101 98 95 91 85 83 81 81 78 77 79 77 74 74 78 79 83 82 77 76 75 80 85
201 219 250 257 265 231 247 73 91 70 88 107 94 83 104 127 138 141 138 135 144 165 159 158 183 147 118 126 100 110 131 132 132 136 143 146 148 148 150 151 149 149 147 146 144 148 154 153 155 154 156 159 157 158 158 156 150 147 148 149 147 142 142 144 142 139 135 133 131 131 127 119 113 106 101 96 94 90 86 84 81 82 80 77 76 77 74 73 79 85 88 84 79 75 73 76 81
208 219 268 270 268 257 172 87 91 93 94 103 107 117 136 136 140 143 136 128 140 159 149 156 177 143 130 121 106 123 139 141 139 142 148 149 150 150 150 152 150 149 147 145 144 147 151 155 158 158 159 159 159 159 156 155 151 149 149 148 147 147 148 147 144 141 137 135 133 134 129 123 116 107 101 95 94 93 89 86 82 80 79 78 75 75 75 73 78 86 86 82 79 75 71 72 75
227 204 260 271 254 278 71 73 91 99 102 115 116 131 143 137 144 140 132 126 141 146 141 163 161 140 135 119 105 120 140 150 149 148 151 151 152 152 152 152 151 150 148 146 146 147 151 156 159 160 160 158 158 158 155 154 153 152 150 149 150 151 151 149 148 144 141 137 135 134 130 126 118 109 100 95 95 93 90 88 84 81 82 81 77 75 79 80 80 82 82 79 78 77 74 70 71
247 207 239 274 285 16 34 45 83 92 113 135 127 136 148 149 147 133 136 128 143 148 151 174 150 145 145 123 119 135 149 154 152 153 152 154 155 155 153 152 154 152 149 147 147 148 151 154 158 160 160 158 157 157 156 155 155 155 152 151 152 154 154 152 152 147 144 139 136 133 130 129 122 114 101 95 95 92 89 87 84 83 85 84 80 77 79 84 83 82 81 80 77 77 76 72 71
241 252 257 280 316 349 334 18 88 114 131 122 123 138 153 162 152 129 133 128 147 158 156 162 142 161 144 111 131 145 157 154 152 155 154 156 156 156 156 155 156 152 150 149 149 150 152 154 156 159 160 160 159 159 158 157 157 155 154 154 154 157 157 157 155 150 146 141 138 132 127 127 125 116 102 97 95 93 87 82 82 84 86 83 82 78 76 82 84 85 85 82 79 78 76 72 73
232 278 279 286 306 289 272 166 131 155 117 107 122 139 161 166 145 127 133 135 136 128 129 140 151 170 133 116 144 156 160 153 152 158 157 158 156 157 158 157 159 155 153 152 151 152 153 155 156 159 161 161 160 160 160 160 159 157 158 157 159 162 162 162 157 153 148 145 142 134 130 126 125 118 104 99 95 93 86 80 79 80 82 80 80 80 81 84 85 88 88 86 83 79 76 74 76
230 284 270 279 283 243 193 136 131 143 98 109 132 140 162 150 143 150 152 135 111 100 116 139 169 167 147 155 165 163 160 153 156 160 158 158 157 159 159 159 161 159 157 155 155 155 156 158 157 160 162 161 160 160 161 163 162 160 162 161 164 166 167 166 160 158 152 151 149 144 139 125 125 120 107 100 94 91 87 80 75 75 78 79 76 78 88 90 89 89 87 84 79 74 72 72 74
231 275 258 267 269 237 139 150 167 155 89 104 135 148 163 140 162 161 117 108 109 133 147 148 171 128 148 169 153 154 157 155 157 159 158 159 157 159 161 163 164 163 163 160 159 159 160 160 160 162 163 164 163 162 163 166 167 166 167 167 168 170 173 172 165 163 160 158 157 159 148 129 129 122 107 104 98 91 88 86 84 79 76 82 82 83 97 98 96 92 85 71 66 69 64 61 67
218 249 249 252 253 239 118 137 117 89 73 102 148 167 174 145 166 139 108 142 131 154 165 139 156 104 90 139 138 148 154 155 158 159 161 162 160 162 165 168 168 168 168 167 164 163 165 164 164 166 166 167 166 165 165 167 171 171 171 173 174 177 179 178 173 171 168 166 167 169 156 143 146 135 118 116 110 94 85 88 91 84 81 87 92 105 111 108 107 98 81 63 58 59 58 54 59
203 226 242 249 243 77 79 69 57 35 50 82 162 182 196 162 164 150 150 170 149 159 162 137 141 110 94 123 135 147 153 157 161 163 164 167 167 167 168 171 172 171 172 171 168 167 168 168 170 170 169 170 168 167 166 169 173 173 175 178 179 182 182 181 180 179 179 176 178 177 167 162 153 139 130 127 122 113 118 106 91 89 92 92 106 128 128 121 116 96 70 58 55 52 57 54 46
210 231 244 248 103 82 73 39 41 23 16 19 188 192 215 183 163 172 184 173 159 166 161 152 146 125 120 131 140 149 156 161 165 167 168 172 173 171 172 172 174 174 174 173 171 171 172 172 174 175 172 171 171 169 168 171 174 175 178 180 182 185 185 185 186 187 188 186 185 182 174 170 151 143 150 144 135 129 143 127 97 93 97 95 107 122 126 129 113 77 53 53 55 46 58 66 52
215 235 246 248 203 139 143 335 18 26 7 354 10 182 214 195 161 183 202 176 173 181 167 165 161 145 139 143 148 153 160 165 168 171 172 175 176 174 175 174 176 176 176 175 172 173 175 175 176 178 176 174 175 173 172 174 175 178 182 184 186 187 190 191 192 192 192 192 188 184 174 167 158 157 166 159 142 129 139 115 77 80 90 90 100 110 109 112 84 56 44 53 59 37 42 57 63
206 220 243 283 272 209 165 354 18 30 5 360 18 173 207 197 178 197 212 190 191 201 183 178 170 156 150 152 155 158 164 169 171 175 174 176 178 177 177 177 178 176 177 176 174 176 176 176 177 178 180 178 180 178 178 180 178 182 185 188 191 190 194 194 194 193 193 195 190 185 176 169 170 172 174 174 168 157 160 149 89 88 106 108 109 129 119 98 90 77 56 47 38 30 38 36 44
220 220 240 258 265 218 133 351 308 355 340 343 354 293 214 184 196 210 212 201 191 193 185 182 170 160 156 158 160 162 167 172 175 177 177 178 179 178 178 179 179 177 179 180 178 179 179 179 178 178 181 183 184 183 183 183 182 186 188 190 192 193 195 193 193 193 193 195 192 189 181 176 181 183 182 186 184 171 174 166 122 106 118 126 121 134 118 97 100 90 67 38 18 28 42 30 25
232 226 231 234 248 251 250 276 268 300 310 312 323 322 255 198 213 213 211 215 199 46 165 170 162 159 158 158 162 168 170 174 178 179 180 180 180 180 179 180 181 179 180 183 181 180 181 183 181 180 182 184 186 186 186 186 187 190 190 190 193 195 194 193 195 193 192 193 192 192 189 188 188 188 187 193 193 175 181 167 123 126 123 118 121 122 115 103 93 62 52 46 38 39 42 36 23
231 240 233 228 239 249 256 262 262 277 286 287 295 294 249 221 227 210 208 219 213 105 154 151 150 156 158 160 166 173 173 175 180 180 181 181 182 182 180 181 181 180 181 184 183 181 183 184 184 185 184 184 186 187 188 188 191 193 193 192 194 196 195 195 197 193 192 193 193 195 197 199 195 193 192 193 196 184 182 174 147 163 136 113 124 123 109 96 94 65 41 33 43 39 33 29 348
226 241 245 239 243 247 251 253 257 265 269 271 267 264 249 231 243 232 212 212 200 171 151 145 149 156 162 166 169 174 175 177 179 180 182 183 183 183 183 182 181 182 185 185 184 183 185 184 185 187 186 185 186 188 191 192 193 196 196 195 195 196 198 199 199 195 194 195 196 197 199 203 201 198 196 196 196 189 183 185 188 173 138 129 136 118 99 84 77 77 35 6 28 13 15 5 297
217 232 246 249 251 251 252 253 254 256 254 253 252 253 246 229 241 243 221 207 187 165 152 147 154 161 166 170 171 174 176 179 180 180 182 182 183 184 185 184 183 185 188 187 185 184 184 185 186 187 186 186 187 189 193 194 194 196 197 198 196 196 200 202 200 201 200 199 198 198 201 204 205 201 198 200 199 197 191 192 199 185 159 153 158 112 89 51 2 37 25 11 17 350 3 343 302
200 224 244 251 258 257 255 256 253 255 250 240 244 253 248 225 225 231 210 192 176 163 159 155 160 167 169 172 174 175 179 181 180 179 181 182 184 186 186 187 187 187 189 188 187 187 185 186 188 188 188 188 189 191 193 195 195 196 198 199 198 198 201 202 203 207 205 203 201 201 203 203 206 206 200 199 201 201 194 195 198 195 182 168 194 138 77 11 7 22 23 6 353 335 336 321 323
228 233 251 251 256 253 248 252 248 249 246 234 237 250 250 223 214 222 194 169 172 173 167 164 168 171 172 174 174 177 181 181 180 181 183 183 185 187 188 188 188 188 189 190 188 187 187 188 189 188 189 189 191 193 193 195 196 197 198 200 201 200 201 202 205 208 206 206 203 202 204 204 207 208 205 203 205 203 197 199 195 195 198 189 209 203 36 356 11 1 11 333 303 301 308 330 340
240 243 260 256 256 254 243 242 241 236 236 222 224 245 240 217 211 216 189 165 175 182 175 171 173 173 173 175 174 177 181 180 182 185 186 185 186 188 189 188 188 188 189 190 188 188 189 190 190 189 190 191 192 195 195 196 197 198 199 201 203 202 202 204 206 207 206 206 205 205 207 209 209 208 210 209 212 212 203 203 198 200 205 196 210 212 224 224 196 293 318 291 290 286 299 352 335
235 234 251 259 256 251 236 231 228 225 228 206 207 239 227 203 201 202 182 174 182 186 182 178 177 174 174 176 176 178 181 182 184 186 187 186 187 189 191 189 188 188 188 189 188 188 189 190 190 191 191 192 194 196 197 197 198 198 201 202 202 203 204 205 206 206 206 205 205 209 210 212 212 210 212 213 219 223 214 210 205 205 208 206 216 211 215 209 204 253 271 280 287 287 300 350 337
227 225 230 243 249 233 203 200 208 209 199 188 206 238 234 184 178 184 178 181 188 189 185 182 180 176 175 178 178 180 182 185 186 185 187 187 187 189 191 190 189 188 186 187 188 187 188 189 190 191 192 194 195 196 198 199 199 199 201 201 201 202 204 206 207 206 205 204 204 209 210 210 213 213 214 217 224 229 226 220 211 208 212 225 233 225 234 223 210 232 256 272 264 277 320 348 333
215 220 218 219 233 224 175 165 195 208 180 181 207 234 235 177 157 173 176 187 195 194 189 185 183 179 177 179 180 183 183 186 188 187 188 187 187 189 191 190 189 188 187 186 187 186 188 188 189 190 191 194 195 196 198 200 200 201 202 202 202 202 204 205 207 206 204 204 204 207 210 209 213 217 216 220 225 230 231 226 217 217 225 255 265 267 265 243 223 234 257 274 268 303 343 352 344
209 220 231 216 213 220 191 165 190 216 200 191 209 235 236 165 143 170 176 191 199 199 197 189 187 183 179 181 181 183 182 183 189 190 188 187 188 189 190 190 189 188 187 186 185 185 187 186 188 191 190 193 195 195 197 198 200 201 203 203 203 204 205 206 206 207 205 204 205 206 209 210 213 217 218 221 225 228 231 227 222 220 228 256 269 275 271 259 244 243 262 276 296 331 340 354 11
204 209 233 229 215 223 206 163 162 194 210 209 212 232 245 210 152 174 181 192 199 204 204 194 191 186 182 183 183 184 183 184 188 190 188 187 187 188 189 189 188 188 187 187 185 183 185 185 186 190 190 191 194 194 195 197 199 200 203 204 205 206 208 209 207 208 207 206 206 205 207 209 211 216 218 221 223 227 231 228 225 224 231 249 261 266 266 265 261 250 247 258 322 339 340 354 13
213 204 218 229 221 231 226 191 152 176 211 223 216 223 238 236 202 185 187 193 201 208 207 199 197 192 187 186 187 186 185 188 188 188 187 186 185 186 187 188 188 188 188 188 187 184 184 184 185 188 188 189 191 193 194 196 198 200 203 205 207 209 210 211 210 209 210 209 210 207 208 210 212 216 217 218 221 224 227 227 228 229 236 243 250 257 257 257 257 252 243 223 343 343 349 4 15
230 218 215 225 220 226 231 218 167 194 235 233 230 232 234 236 219 191 188 194 203 211 208 201 200 197 194 191 191 189 188 190 187 187 187 185 185 184 185 187 188 189 189 188 188 188 186 185 185 187 187 187 187 190 192 194 198 200 203 205 207 210 211 212 213 213 212 212 212 208 209 212 212 214 215 217 219 221 223 225 227 229 236 239 243 252 254 252 247 240 234 195 165 357 25 34 25
243 231 219 228 230 226 226 216 181 215 253 241 237 246 244 244 235 205 193 197 204 209 208 205 203 201 199 198 197 193 191 188 182 184 187 187 186 183 183 185 187 189 189 188 189 190 189 187 187 188 187 186 187 189 192 195 197 199 201 204 206 206 208 209 212 213 213 213 211 209 210 211 212 213 214 214 215 217 220 225 227 227 233 236 240 249 251 251 240 229 221 197 187 50 71 78 67
231 233 224 228 232 232 233 220 171 192 246 249 245 253 251 245 244 231 212 207 207 208 209 208 207 204 201 202 202 196 190 182 178 182 186 188 187 184 183 184 186 189 190 190 190 191 191 191 192 190 188 188 191 192 193 195 197 198 198 201 203 202 203 205 208 211 212 212 209 207 210 211 212 213 214 213 213 215 218 225 227 226 231 233 238 248 252 250 237 224 219 212 187 72 83 87 107
225 234 234 234 230 231 236 225 201 209 241 253 252 258 257 251 250 243 224 214 210 211 215 212 208 206 205 203 201 196 188 183 182 182 184 187 187 184 183 184 187 188 189 191 193 193 193 194 195 193 190 191 194 194 193 194 196 196 197 197 200 202 203 205 208 209 208 208 207 207 212 214 213 214 214 213 214 216 217 222 227 227 229 229 236 244 250 250 234 219 219 215 200 141 119 106 151
227 232 232 236 232 229 234 216 207 223 240 255 264 268 265 258 249 241 231 219 212 213 218 218 212 209 207 204 200 195 190 187 185 184 184 185 186 186 185 185 187 188 190 191 193 195 195 196 196 195 194 194 195 195 195 195 194 194 196 197 200 205 207 205 206 207 205 206 207 209 213 216 215 215 215 214 213 214 215 220 227 230 228 227 232 238 242 243 230 216 215 213 216 194 143 129 152
227 230 231 235 232 232 241 218 197 225 233 240 257 269 263 254 246 240 228 213 211 213 213 216 216 213 212 208 202 197 194 190 188 186 184 184 186 187 187 186 186 189 192 192 193 196 197 198 197 196 196 196 196 196 194 192 191 191 192 193 197 204 209 206 203 204 204 205 209 210 211 213 213 214 213 214 213 213 215 219 226 230 229 229 233 237 239 236 224 214 210 210 220 219 168 142 146
227 225 228 236 238 236 240 237 230 241 235 222 229 250 256 244 243 243 226 202 202 203 206 211 212 211 212 209 204 199 197 193 191 190 188 186 186 186 187 187 188 190 192 193 193 195 197 198 197 197 197 198 198 196 192 189 189 189 188 190 195 200 207 208 204 204 204 206 211 212 210 209 210 211 212 213 214 214 215 218 223 229 230 231 234 238 239 232 222 214 210 209 218 209 189 175 161
232 220 221 229 236 240 235 232 234 243 250 228 214 239 259 246 241 236 212 201 200 193 200 207 206 209 209 207 205 199 197 195 192 192 191 189 186 186 188 189 191 192 191 192 193 194 196 196 195 196 197 198 198 195 191 189 190 192 193 196 200 203 207 209 208 208 208 208 210 209 209 207 207 209 210 212 214 215 218 219 222 227 230 231 234 238 239 233 222 212 209 210 211 192 180 196 184
231 218 216 221 225 231 232 232 238 245 258 245 213 228 257 255 244 226 201 205 202 190 196 203 202 207 207 206 205 201 198 196 192 192 192 191 189 189 190 191 194 193 190 189 192 194 195 195 194 194 195 197 196 194 192 192 193 195 198 202 205 208 211 211 208 208 208 207 206 205 206 206 207 210 211 212 214 216 218 220 221 223 227 229 232 239 240 234 224 212 207 206 207 199 186 197 199
227 211 219 223 219 225 230 236 244 245 252 247 223 223 245 252 243 234 220 217 213 202 202 204 203 204 205 206 206 203 200 197 195 193 192 193 194 193 192 193 193 192 189 189 191 192 193 194 193 193 194 195 195 193 192 194 196 198 201 204 207 210 212 212 207 205 204 204 203 203 204 204 206 210 211 212 214 215 218 221 222 221 223 225 230 238 238 230 223 216 210 206 205 207 196 197 203
220 199 200 218 217 224 228 233 243 242 244 245 232 225 237 250 241 230 222 219 220 220 215 211 208 202 202 206 206 203 200 198 198 196 193 194 196 197 195 193 192 192 192 191 190 190 191 192 193 194 194 194 195 194 193 197 199 199 202 204 206 207 206 207 206 203 200 201 203 204 205 206 208 210 212 213 215 217 218 221 223 222 222 225 231 235 234 228 224 217 215 211 205 206 201 202 202
213 202 200 214 215 220 226 228 235 240 241 240 233 230 237 251 244 228 224 219 217 224 224 215 208 202 201 205 207 203 199 198 200 198 196 194 196 198 196 194 192 192 192 190 189 190 191 192 193 194 195 194 194 194 195 200 201 200 204 205 206 205 201 201 202 202 199 199 203 205 207 209 211 213 214 214 216 218 218 220 221 222 221 223 227 230 230 230 226 220 214 210 207 208 205 206 207
212 207 206 219 215 211 221 216 218 235 240 232 227 228 234 245 242 229 231 223 215 223 227 220 207 199 199 202 204 203 199 198 198 199 197 194 193 194 195 195 193 192 192 191 190 190 190 191 192 193 194 194 194 193 195 201 203 203 205 207 207 205 202 201 202 203 201 200 203 204 207 210 212 215 215 215 216 216 216 217 219 221 220 220 222 225 228 230 229 223 214 207 207 209 208 207 208
209 207 205 213 204 194 207 208 211 230 236 229 224 223 230 242 243 234 237 230 221 223 229 229 218 203 197 198 201 201 199 198 197 198 198 193 191 191 192 193 191 191 193 193 192 190 189 190 191 192 193 193 193 193 196 200 203 206 207 207 207 206 205 204 205 206 204 203 203 203 204 207 209 212 214 217 217 216 214 214 215 217 217 217 218 219 224 228 230 226 217 210 210 210 210 211 209
202 203 203 205 200 194 205 209 216 230 230 222 218 220 235 247 245 231 230 231 226 221 221 226 225 212 199 196 200 198 198 200 198 197 198 195 193 190 190 190 189 191 193 193 193 191 189 189 190 192 193 193 193 194 196 200 204 207 210 209 207 206 207 207 208 209 208 206 205 205 205 207 209 211 213 216 217 216 215 213 213 213 213 214 214 216 220 224 227 227 222 216 216 214 211 212 211
200 204 208 212 213 211 211 211 219 228 225 207 197 204 234 240 238 224 222 219 218 222 224 224 224 220 209 200 199 197 197 199 198 198 199 197 194 190 189 189 189 191 193 193 194 192 191 190 189 191 192 192 193 194 196 199 203 207 211 212 209 207 208 209 211 212 210 208 207 207 207 208 211 213 213 215 214 213 213 213 212 212 212 212 211 213 217 219 221 224 224 221 219 218 214 213 211
196 200 210 215 215 220 230 248 249 252 241 209 195 207 234 230 78 140 203 205 208 217 223 221 220 218 214 206 200 198 198 199 198 199 200 199 196 191 190 189 189 191 192 193 193 192 192 191 190 191 192 192 193 194 196 199 202 205 209 212 211 208 208 210 213 211 210 209 208 207 208 210 211 212 212 211 210 210 211 212 212 212 211 210 209 210 213 216 216 218 221 221 220 220 216 214 211
187 196 212 212 208 221 236 250 267 275 252 221 203 220 234 251 254 221 205 203 203 207 211 211 212 210 208 205 200 198 199 199 198 199 200 198 195 194 192 191 190 191 192 193 192 191 192 191 190 191 191 191 193 195 196 199 202 203 206 209 210 210 209 211 213 210 207 208 208 208 210 211 211 211 210 208 207 208 209 210 212 213 211 210 210 210 211 213 213 212 215 217 220 220 218 216 213
195 196 203 199 204 224 237 236 225 226 238 231 220 228 227 230 242 212 204 209 205 204 208 210 209 204 202 202 201 202 201 200 200 200 199 196 195 197 196 194 193 193 193 193 191 190 191 192 191 191 191 191 192 194 196 198 199 202 205 206 208 210 210 211 212 209 205 206 207 209 211 213 212 211 210 208 207 206 207 209 210 211 211 212 213 212 211 211 211 212 213 216 219 217 217 218 214
218 208 190 189 202 208 210 227 225 219 232 237 228 234 233 227 231 202 202 210 210 207 207 210 210 205 204 203 201 204 204 202 202 201 199 197 198 198 198 198 197 195 194 193 191 190 191 193 193 194 194 194 193 194 196 198 199 202 205 206 206 208 210 212 212 207 204 206 208 209 211 212 212 210 209 207 207 206 206 207 209 210 211 213 214 215 214 210 209 212 213 215 216 215 216 219 216
216 217 197 196 207 205 200 211 224 227 234 238 231 230 233 232 231 225 213 207 208 208 204 210 214 208 206 206 203 201 200 202 203 202 200 200 201 201 199 200 200 197 195 193 192 192 194 195 194 196 197 195 195 196 196 197 199 202 203 204 205 207 209 213 213 206 204 207 208 209 210 211 210 209 208 208 207 208 208 207 209 210 211 212 213 215 215 211 208 211 213 214 213 213 215 218 217
201 208 203 199 199 208 212 211 217 231 237 239 240 234 229 225 226 228 225 214 209 212 210 211 215 215 211 210 210 203 196 199 202 201 202 202 203 202 201 202 202 200 197 195 194 195 196 196 196 197 196 195 196 198 197 198 199 201 202 202 204 205 207 211 211 206 206 208 208 209 210 210 209 208 208 208 208 209 209 209 210 210 209 209 209 210 213 211 207 209 213 214 212 212 213 215 215
193 201 202 199 197 203 212 209 210 224 237 240 246 252 248 85 128 204 213 212 211 216 222 217 214 219 218 213 216 209 199 201 203 203 205 204 202 202 201 201 202 201 199 198 198 197 197 198 198 198 197 196 198 198 198 198 198 199 201 201 202 203 204 207 208 207 208 209 209 209 209 208 208 209 209 209 209 209 209 210 211 210 208 207 206 207 211 211 207 208 212 213 210 210 211 212 214